Retour au catalogue

GEESAT 6-07

ActifCommunicationsLEO
NORAD 65719·PAYLOAD·🇨🇳 China

Lancé Sep 24, 2025 depuis Yellow Sea Launch Area

Loading…

Prochains Passages (prochaines 24 heures)

TLE

FraisSource: Space-Track

Époque: Sep 13, 2026, 23:49 UTC

1 65719U 25214H   26256.99302665  .00001222  00000-0  17385-3 0  9997
2 65719  49.9795 256.3307 0009806 218.3673 141.6569 14.83587409 52707

Suivez GEESAT 6-07 en temps réel avec AllMySat

Download on the App Store